User: anonymous   Login
Location: Unspecified
(0.0000°N, 0.0000°E)
Time: 21:08:07
(UTC+00:00)
Language:

TBA - TO BE ASSIGNED - Orbit

View from above orbital plane
View from above orbital plane
View from above satellite
View from above satellite

Ground track
Ground track

The orbit is defined by the following mean orbital elements,

1 67999U          26145.55558222 +.00000000 +00000-0 +42313-3 0 00001
2 67999  43.0019 334.4385 0000609 293.4535  66.6253 15.27591225    02
Epoch (UTC): 25 May 2026 13:20:02
Eccentricity: 0.0000609
inclination: 43.0019°
perigee height: 483 km
apogee height: 483 km
right ascension of ascending node: 334.4385°
argument of perigee: 293.4535°
revolutions per day: 15.27591225
mean anomaly at epoch: 66.6253°

The dashed part of the orbit path shows where the satellite is in the earth's shadow,  

DLR